Regional Weather Roundup
Issued by NWS Memphis, TN

Home | Current Version | Previous Version | Text Only | Print | Product List | Glossary On
Versions: 1 2 3 4 5 6 7 8 9 10 11 12 13 14 15 16 17 18 19 20 21 22 23 24 25 26 27 28 29 30 31 32 33 34 35 36 37 38 39 40 41 42 43 44 45 46 47 48 49 50
000
ASUS44 KMEG 311210
RWRMEG
MEMPHIS CWA HOURLY WEATHER ROUNDUP
NATIONAL WEATHER SERVICE MEMPHIS TN
700 AM CDT FRI OCT 31 2014

...WEST TENNESSEE...

CITY           SKY/WX    TMP DP  RH WIND       PRES   REMARKS
MEMPHIS INTL   PTCLDY    50  47  89 NW9       30.02R
6HR MIN TEMP:  50; 6HR MAX TEMP:  59;

NWS MEMPHIS      N/A     46 N/A N/A MISG        N/A
JACKSON        FOG       45  43  93 CALM      30.02R VSB 1/4
6HR MIN TEMP:  44; 6HR MAX TEMP:  52; 6HR PCP:  0.04;

LEXINGTON      CLOUDY    46  45  93 E5        29.98F
SAVANNAH       CLOUDY    45  45 100 CALM      30.00R
DYERSBURG      CLEAR     48  36  61 N5        30.05R
6HR MIN TEMP:  45; 6HR MAX TEMP:  54;

UNION CITY     MOCLDY    48  46  93 N5        30.03R
PARIS          CLOUDY    48  45  87 N5        30.02R
HUNTINGDON     MOCLDY    47  43  86 N3        30.02R


...EASTERN ARKANSAS...

CITY           SKY/WX    TMP DP  RH WIND       PRES   REMARKS
JONESBORO      CLEAR     49  45  86 N7        30.08R
6HR MIN TEMP:  48; 6HR MAX TEMP:  53;

WEST MEMPHIS   CLEAR     48  47  96 N7        30.04R
6HR MIN TEMP:  48; 6HR MAX TEMP:  56;

BATESVILLE     CLEAR     52  43  71 NW8G17    30.12R
6HR MIN TEMP:  52; 6HR MAX TEMP:  54;

NEWPORT        CLEAR     48  45  90 N17       30.10R
6HR MIN TEMP:  48; 6HR MAX TEMP:  53;

WALNUT RIDGE   CLEAR     48  43  81 N15       30.10R
6HR MIN TEMP:  45; 6HR MAX TEMP:  48;

BLYTHEVILLE    CLEAR     47  46  97 N10       30.05R
6HR MIN TEMP:  46; 6HR MAX TEMP:  54;

SEARCY         CLEAR     52  44  74 NW7       30.12R
6HR MIN TEMP:  51; 6HR MAX TEMP:  56;

STUTTGART      CLEAR     52  43  71 NW9       30.08R
6HR MIN TEMP:  52; 6HR MAX TEMP:  55;

PINE BLUFF     CLEAR     53  44  71 NW9       30.09R
6HR MIN TEMP:  53; 6HR MAX TEMP:  57;

MONTICELLO     CLEAR     52  44  74 NW6       30.07R
6HR MIN TEMP:  52; 6HR MAX TEMP:  58;



...NORTH MISSISSIPPI...

CITY           SKY/WX    TMP DP  RH WIND       PRES   REMARKS
TUPELO         CLEAR     46  43  89 CALM      29.97S
6HR MIN TEMP:  46; 6HR MAX TEMP:  54;

OXFORD         CLEAR     41  41 100 CALM      30.01R
OLIVE BRANCH   PTCLDY    45  45 100 N7        30.01R
TUNICA         CLEAR     52  46  82 NW15      30.04R
CLARKSDALE     CLEAR     54  48  82 NW14      30.03R
CORINTH        FOG       43  43 100 CALM      29.99R VSB 1/4
GRENADA        CLEAR     43  43 100 CALM      30.00R
GREENWOOD      CLEAR     47  45  93 CALM      30.01R
6HR MIN TEMP:  46; 6HR MAX TEMP:  51;

COLUMBUS       CLEAR     44  43  95 S2        29.98S
6HR MIN TEMP:  42; 6HR MAX TEMP:  48;

STARKVILLE     FAIR      41  41 100 CALM      29.98S
GOLDEN TRIANGL PTCLDY    48  45  87 CALM      29.97F


...SOUTHEAST MISSOURI...

CITY           SKY/WX    TMP DP  RH WIND       PRES   REMARKS
WEST PLAINS    CLEAR     46  40  79 N16G26    30.17R
6HR MIN TEMP:  46; 6HR MAX TEMP:  51;

POPLAR BLUFF   CLEAR     48  43  82 N12       30.08R
6HR MIN TEMP:  46; 6HR MAX TEMP:  50;

CAPE GIRARDEAU MOCLDY    50  46  86 N13       30.07R
6HR MIN TEMP:  48; 6HR MAX TEMP:  53;



...NORTHWEST ALABAMA...

CITY           SKY/WX    TMP DP  RH WIND       PRES   REMARKS
MUSCLE SHOALS  MOCLDY    48  45  89 CALM      29.99R
6HR MIN TEMP:  45; 6HR MAX TEMP:  51; 6HR PCP:  0.02;



...MIDDLE TENNESSEE...

CITY           SKY/WX    TMP DP  RH WIND       PRES   REMARKS
NASHVILLE      CLOUDY    50  45  83 CALM      30.00R
6HR MIN TEMP:  49; 6HR MAX TEMP:  52; 6HR PCP: TRACE;

CLARKSVILLE    CLOUDY    49  47  93 N3        30.01R
6HR MIN TEMP:  49; 6HR MAX TEMP:  51; 6HR PCP:  0.05;

DICKSON        CLOUDY    46  45  93 CALM      30.00R
COLUMBIA       CLOUDY   N/A N/A N/A CALM      29.98S


...WESTERN KENTUCKY...

CITY           SKY/WX    TMP DP  RH WIND       PRES   REMARKS
PADUCAH        CLOUDY    51  49  92 NW5       30.04R
6HR MIN TEMP:  50; 6HR MAX TEMP:  52; 6HR PCP:  0.01;

FORT CAMPBELL  CLOUDY    49  49 100 N2        30.00F
6HR MIN TEMP:  48; 6HR MAX TEMP:  51; 6HR PCP:  0.05;



...CENTRAL ARKANSAS...

CITY           SKY/WX    TMP DP  RH WIND       PRES   REMARKS
LITTLE ROCK    CLEAR     54  42  64 NW14      30.11R
6HR MIN TEMP:  53; 6HR MAX TEMP:  58;



SKY/WX REPORTED AS FAIR MEANS FEW OR NO CLOUDS BELOW
12 THOUSAND FEET.




USA.gov is the U.S. government's official web portal to all federal, state and local government web resources and services.